| time (UTC) | temp F | wind direction | speed knots | gust knots | rain 1hr in | rain 24hr in | rain mn in | humidity % | barometer mb |
| 20260503050019 | 58 | 359 | 0.0 | 0.0 | 0.00 | 0.00 | 0.00 | 58 | 1013.0 |
| 20260503044519 | 59 | 359 | 0.0 | 0.0 | 0.00 | 0.00 | 0.00 | 58 | 1012.9 |
| 20260503043018 | 61 | 359 | 0.0 | 0.0 | 0.00 | 0.00 | 0.00 | 52 | 1012.6 |
| 20260503041519 | 62 | 359 | 0.0 | 0.0 | 0.00 | 0.00 | 0.00 | 50 | 1012.5 |
| 20260503040019 | 63 | 359 | 0.0 | 0.0 | 0.00 | 0.00 | 0.00 | 48 | 1012.3 |
| 20260503034518 | 62 | 359 | 0.0 | 0.0 | 0.00 | 0.00 | 0.00 | 49 | 1012.0 |
| 20260503033025 | 64 | 359 | 0.0 | 0.0 | 0.00 | 0.00 | 0.00 | 53 | 1011.8 |
| 20260503031516 | 64 | 359 | 0.0 | 0.0 | 0.00 | 0.00 | 0.00 | 49 | 1011.4 |
| 20260503030015 | 68 | 359 | 0.0 | 0.0 | 0.00 | 0.00 | 0.00 | 39 | 1011.1 |
| 20260503024518 | 69 | 359 | 0.0 | 0.0 | 0.00 | 0.00 | 0.00 | 36 | 1011.1 |
| 20260503023014 | 70 | 359 | 0.0 | 0.0 | 0.00 | 0.00 | 0.00 | 37 | 1011.1 |
| 20260503021514 | 73 | 298 | 0.0 | 0.0 | 0.00 | 0.00 | 0.00 | 31 | 1011.0 |
| 20260503020014 | 74 | 298 | 0.0 | 0.0 | 0.00 | 0.00 | 0.00 | 27 | 1010.9 |
| 20260503014513 | 74 | 298 | 0.0 | 0.0 | 0.00 | 0.00 | 0.00 | 26 | 1010.8 |
| 20260503013013 | 75 | 298 | 0.0 | 0.0 | 0.00 | 0.00 | 0.00 | 25 | 1010.8 |
| 20260503011513 | 76 | 298 | 0.0 | 0.0 | 0.00 | 0.00 | 0.00 | 26 | 1010.8 |
| 20260503010016 | 76 | 298 | 0.0 | 0.0 | 0.00 | 0.00 | 0.00 | 27 | 1010.8 |
| 20260503004522 | 77 | 298 | 0.0 | 0.0 | 0.00 | 0.00 | 0.00 | 25 | 1010.8 |
| 20260503003013 | 78 | 299 | 0.0 | 0.0 | 0.00 | 0.00 | 0.00 | 24 | 1010.7 |
| 20260503001510 | 78 | 303 | 0.0 | 0.9 | 0.00 | 0.00 | 0.00 | 23 | 1010.6 |
| 20260503000010 | 79 | 304 | 0.0 | 2.6 | 0.00 | 0.00 | 0.00 | 23 | 1010.5 |
| 20260502234508 | 79 | 310 | 0.0 | 2.6 | 0.00 | 0.00 | 0.00 | 24 | 1010.6 |
| 20260502233010 | 78 | 311 | 0.0 | 0.9 | 0.00 | 0.00 | 0.00 | 24 | 1010.6 |
| 20260502231506 | 78 | 324 | 0.0 | 7.8 | 0.00 | 0.00 | 0.00 | 26 | 1010.7 |
| 20260502230009 | 79 | 318 | 0.0 | 7.8 | 0.00 | 0.00 | 0.00 | 23 | 1010.8 |
| 20260502224502 | 80 | 324 | 0.0 | 5.2 | 0.00 | 0.00 | 0.00 | 23 | 1011.0 |
| 20260502223101 | 79 | 323 | 1.7 | 9.6 | 0.00 | 0.00 | 0.00 | 23 | 1011.1 |
| 20260502221559 | 80 | 316 | 0.9 | 9.6 | 0.00 | 0.00 | 0.00 | 23 | 1011.3 |
| 20260502220056 | 79 | 320 | 1.7 | 8.7 | 0.00 | 0.00 | 0.00 | 23 | 1011.4 |
| 20260502214553 | 79 | 336 | 1.7 | 10.4 | 0.00 | 0.00 | 0.00 | 25 | 1011.7 |
| 20260502213105 | 78 | 327 | 3.5 | 9.6 | 0.00 | 0.00 | 0.00 | 25 | 1011.9 |
| 20260502211605 | 78 | 328 | 2.6 | 7.8 | 0.00 | 0.00 | 0.00 | 25 | 1012.0 |
| 20260502210047 | 78 | 315 | 0.0 | 7.0 | 0.00 | 0.00 | 0.00 | 26 | 1012.1 |
| 20260502204543 | 77 | 314 | 1.7 | 7.0 | 0.00 | 0.00 | 0.00 | 27 | 1012.3 |
| 20260502203041 | 77 | 326 | 0.0 | 7.8 | 0.00 | 0.00 | 0.00 | 30 | 1012.4 |
| 20260502201538 | 76 | 328 | 2.6 | 5.2 | 0.00 | 0.00 | 0.00 | 31 | 1012.4 |
| 20260502200036 | 75 | 326 | 0.0 | 5.2 | 0.00 | 0.00 | 0.00 | 32 | 1012.6 |
| 20260502194532 | 74 | 329 | 0.9 | 7.8 | 0.00 | 0.00 | 0.00 | 35 | 1012.8 |
| 20260502193029 | 74 | 314 | 0.9 | 7.0 | 0.00 | 0.00 | 0.00 | 35 | 1013.1 |
| 20260502191525 | 73 | 309 | 0.9 | 5.2 | 0.00 | 0.00 | 0.00 | 37 | 1013.3 |
| 20260502190031 | 72 | 311 | 1.7 | 7.0 | 0.00 | 0.00 | 0.00 | 36 | 1013.6 |
| 20260502184526 | 71 | 328 | 1.7 | 7.8 | 0.00 | 0.00 | 0.00 | 38 | 1013.7 |
| 20260502183033 | 70 | 324 | 0.0 | 7.0 | 0.00 | 0.00 | 0.00 | 38 | 1014.0 |
| 20260502181517 | 69 | 320 | 1.7 | 7.8 | 0.00 | 0.00 | 0.00 | 37 | 1014.2 |
| 20260502163053 | 62 | 175 | 0.0 | 0.0 | 0.00 | 0.00 | 0.00 | 45 | 1015.6 |
| 20260502161544 | 60 | 175 | 0.0 | 0.0 | 0.00 | 0.00 | 0.00 | 48 | 1015.8 |
| 20260502151537 | 55 | 359 | 0.0 | 0.0 | 0.00 | 0.00 | 0.00 | 58 | 1016.4 |
| 20260502123022 | 47 | 359 | 0.0 | 0.0 | 0.00 | 0.00 | 0.00 | 77 | 1016.4 |
| 20260502121523 | 47 | 359 | 0.0 | 0.0 | 0.00 | 0.00 | 0.00 | 77 | 1016.4 |
| 20260502114518 | 48 | 359 | 0.0 | 0.0 | 0.00 | 0.00 | 0.00 | 75 | 1016.5 |
| 20260502113017 | 48 | 359 | 0.0 | 0.0 | 0.00 | 0.00 | 0.00 | 75 | 1016.5 |
| 20260502111516 | 48 | 359 | 0.0 | 0.0 | 0.00 | 0.00 | 0.00 | 73 | 1016.6 |
| 20260502110016 | 48 | 359 | 0.0 | 0.0 | 0.00 | 0.00 | 0.00 | 72 | 1016.6 |
| 20260502104521 | 49 | 359 | 0.0 | 0.0 | 0.00 | 0.00 | 0.00 | 71 | 1016.7 |
| 20260502103016 | 49 | 359 | 0.0 | 0.0 | 0.00 | 0.00 | 0.00 | 72 | 1016.6 |
| 20260502101531 | 48 | 359 | 0.0 | 0.9 | 0.00 | 0.00 | 0.00 | 75 | 1016.5 |
| 20260502091506 | 50 | 359 | 0.0 | 0.0 | 0.00 | 0.00 | 0.00 | 71 | 1016.3 |
| 20260502080110 | 51 | 359 | 0.0 | 0.0 | 0.00 | 0.00 | 0.00 | 70 | 1016.3 |
| 20260502070059 | 54 | 359 | 0.0 | 0.0 | 0.00 | 0.00 | 0.00 | 63 | 1016.1 |
| 20260502064552 | 56 | 359 | 0.0 | 0.9 | 0.00 | 0.00 | 0.00 | 57 | 1015.8 |
| 20260502063056 | 59 | 359 | 0.0 | 5.2 | 0.00 | 0.00 | 0.00 | 52 | 1015.8 |
| 20260502061550 | 53 | 359 | 0.0 | 0.0 | 0.00 | 0.00 | 0.00 | 68 | 1015.6 |
| 20260502060049 | 54 | 359 | 0.0 | 0.0 | 0.00 | 0.00 | 0.00 | 64 | 1015.6 |
| 20260502054548 | 58 | 359 | 0.0 | 0.0 | 0.00 | 0.00 | 0.00 | 59 | 1015.5 |
| 20260502053048 | 62 | 359 | 0.0 | 8.7 | 0.00 | 0.00 | 0.00 | 46 | 1015.4 |
| 20260502051603 | 60 | 359 | 0.0 | 0.0 | 0.00 | 0.00 | 0.00 | 50 | 1015.4 |